TimeEST,TemperatureF,Dew PointF,Humidity,Sea Level PressureIn,VisibilityMPH,Wind Direction,Wind SpeedMPH,Gust SpeedMPH,PrecipitationIn,Events,Conditions,WindDirDegrees,DateUTC
12:15 AM,28.4,23.0,80,29.91,10.0,Calm,Calm,-,N/A,,Overcast,0,2013-02-05 05:15:00
12:35 AM,28.4,23.0,80,29.90,10.0,East,3.5,-,N/A,,Overcast,100,2013-02-05 05:35:00
1:15 AM,28.4,24.8,86,29.90,10.0,Calm,Calm,-,N/A,,Overcast,0,2013-02-05 06:15:00
1:35 AM,28.4,24.8,86,29.89,10.0,Calm,Calm,-,N/A,,Overcast,0,2013-02-05 06:35:00
1:55 AM,28.4,24.8,86,29.90,10.0,Calm,Calm,-,N/A,,Overcast,0,2013-02-05 06:55:00
2:15 AM,28.4,26.6,93,29.90,10.0,Calm,Calm,-,N/A,,Overcast,0,2013-02-05 07:15:00
2:35 AM,28.4,24.8,86,29.89,10.0,Calm,Calm,-,N/A,,Overcast,0,2013-02-05 07:35:00
2:55 AM,28.4,24.8,86,29.89,10.0,ENE,3.5,-,N/A,,Overcast,70,2013-02-05 07:55:00
3:15 AM,28.4,26.6,93,29.88,8.0,ENE,3.5,-,N/A,Snow,Light Snow,70,2013-02-05 08:15:00
3:35 AM,28.4,26.6,93,29.88,10.0,East,3.5,-,N/A,,Overcast,80,2013-02-05 08:35:00
3:55 AM,30.2,26.6,86,29.87,10.0,Calm,Calm,-,N/A,,Overcast,0,2013-02-05 08:55:00
4:15 AM,28.4,26.6,93,29.87,9.0,Calm,Calm,-,N/A,,Overcast,0,2013-02-05 09:15:00
4:35 AM,30.2,26.6,86,29.88,10.0,North,3.5,-,N/A,,Overcast,10,2013-02-05 09:35:00
4:55 AM,30.2,26.6,86,29.89,10.0,NNE,3.5,-,N/A,,Overcast,20,2013-02-05 09:55:00
5:15 AM,30.2,26.6,86,29.89,10.0,Calm,Calm,-,N/A,,Overcast,0,2013-02-05 10:15:00
5:35 AM,30.2,26.6,86,29.88,10.0,Calm,Calm,-,N/A,Snow,Light Snow,0,2013-02-05 10:35:00
5:55 AM,30.2,26.6,86,29.89,10.0,NNE,3.5,-,N/A,,Overcast,30,2013-02-05 10:55:00
6:15 AM,30.2,26.6,86,29.89,10.0,Calm,Calm,-,N/A,,Overcast,0,2013-02-05 11:15:00
6:35 AM,30.2,26.6,86,29.89,10.0,Calm,Calm,-,N/A,,Overcast,0,2013-02-05 11:35:00
6:55 AM,30.2,26.6,86,29.90,9.0,Calm,Calm,-,N/A,,Overcast,0,2013-02-05 11:55:00
7:15 AM,30.2,26.6,86,29.90,8.0,Calm,Calm,-,N/A,,Overcast,0,2013-02-05 12:15:00
7:35 AM,30.2,26.6,86,29.91,7.0,North,4.6,-,N/A,,Overcast,10,2013-02-05 12:35:00
7:55 AM,30.2,26.6,86,29.91,8.0,NNE,3.5,-,N/A,,Overcast,20,2013-02-05 12:55:00
8:15 AM,30.2,28.4,93,29.92,7.0,NNE,3.5,-,N/A,,Overcast,20,2013-02-05 13:15:00
8:35 AM,30.2,28.4,93,29.92,7.0,Calm,Calm,-,N/A,,Overcast,0,2013-02-05 13:35:00
8:55 AM,30.2,28.4,93,29.91,7.0,Calm,Calm,-,N/A,,Overcast,0,2013-02-05 13:55:00
9:15 AM,30.2,28.4,93,29.93,7.0,Calm,Calm,-,N/A,,Overcast,0,2013-02-05 14:15:00
9:35 AM,30.2,28.4,93,29.93,8.0,NNE,3.5,-,N/A,,Overcast,20,2013-02-05 14:35:00
9:55 AM,32.0,28.4,87,29.94,8.0,Calm,Calm,-,N/A,,Overcast,0,2013-02-05 14:55:00
10:15 AM,32.0,28.4,87,29.94,7.0,Calm,Calm,-,N/A,,Overcast,0,2013-02-05 15:15:00
10:35 AM,32.0,28.4,87,29.93,9.0,Calm,Calm,-,N/A,,Overcast,0,2013-02-05 15:35:00
10:55 AM,32.0,28.4,87,29.94,9.0,Calm,Calm,-,N/A,,Overcast,0,2013-02-05 15:55:00
11:15 AM,32.0,28.4,87,29.93,9.0,East,6.9,-,N/A,,Overcast,80,2013-02-05 16:15:00
11:35 AM,32.0,28.4,87,29.94,9.0,Calm,Calm,-,N/A,,Overcast,0,2013-02-05 16:35:00
11:55 AM,32.0,28.4,87,29.93,9.0,Calm,Calm,-,N/A,,Overcast,0,2013-02-05 16:55:00
12:15 PM,32.0,28.4,87,29.92,8.0,Calm,Calm,-,N/A,,Overcast,0,2013-02-05 17:15:00
12:35 PM,32.0,28.4,87,29.90,9.0,Calm,Calm,-,N/A,,Overcast,0,2013-02-05 17:35:00
12:55 PM,32.0,28.4,87,29.90,8.0,East,5.8,-,N/A,,Overcast,80,2013-02-05 17:55:00
1:15 PM,32.0,28.4,87,29.90,7.0,East,5.8,-,N/A,,Overcast,100,2013-02-05 18:15:00
1:35 PM,32.0,28.4,87,29.89,8.0,Calm,Calm,-,N/A,,Overcast,0,2013-02-05 18:35:00
1:55 PM,32.0,28.4,87,29.88,8.0,Calm,Calm,-,N/A,,Overcast,0,2013-02-05 18:55:00
2:15 PM,32.0,28.4,87,29.88,9.0,ENE,4.6,-,N/A,,Overcast,70,2013-02-05 19:15:00
2:35 PM,33.8,28.4,81,29.87,8.0,Calm,Calm,-,N/A,,Overcast,0,2013-02-05 19:35:00
2:55 PM,32.0,28.4,87,29.88,8.0,ENE,3.5,-,N/A,,Overcast,70,2013-02-05 19:55:00
3:15 PM,32.0,28.4,87,29.88,8.0,Calm,Calm,-,N/A,,Overcast,0,2013-02-05 20:15:00
3:35 PM,32.0,28.4,87,29.87,7.0,Calm,Calm,-,N/A,,Overcast,0,2013-02-05 20:35:00
3:55 PM,32.0,28.4,87,29.87,6.0,ENE,3.5,-,N/A,,Overcast,60,2013-02-05 20:55:00
4:15 PM,32.0,28.4,87,29.87,6.0,ENE,6.9,-,N/A,,Overcast,70,2013-02-05 21:15:00
4:35 PM,32.0,28.4,87,29.88,7.0,SSE,3.5,-,N/A,,Overcast,150,2013-02-05 21:35:00
4:55 PM,32.0,30.2,93,29.88,2.5,Calm,Calm,-,N/A,Snow,Light Snow,0,2013-02-05 21:55:00
5:15 PM,32.0,30.2,93,29.88,1.0,ESE,3.5,-,0.05,Snow,Light Snow,120,2013-02-05 22:15:00
5:35 PM,32.0,30.2,93,29.88,1.8,SSE,3.5,-,0.08,Snow,Light Snow,150,2013-02-05 22:35:00
6:15 PM,32.0,32.0,100,29.88,2.5,Calm,Calm,-,N/A,Snow,Light Snow,0,2013-02-05 23:15:00
6:55 PM,32.0,32.0,100,29.88,3.0,ESE,3.5,-,N/A,,Overcast,120,2013-02-05 23:55:00
7:15 PM,32.0,32.0,100,29.89,3.0,ESE,3.5,-,N/A,,Overcast,120,2013-02-06 00:15:00
7:35 PM,32.0,32.0,100,29.89,3.0,ENE,3.5,-,N/A,,Overcast,70,2013-02-06 00:35:00
7:55 PM,32.0,32.0,100,29.89,4.0,Calm,Calm,-,N/A,,Overcast,0,2013-02-06 00:55:00
8:15 PM,32.0,32.0,100,29.89,3.0,Calm,Calm,-,N/A,,Overcast,0,2013-02-06 01:15:00
8:35 PM,32.0,32.0,100,29.89,3.0,Calm,Calm,-,N/A,,Overcast,0,2013-02-06 01:35:00
8:55 PM,32.0,32.0,100,29.89,3.0,Calm,Calm,-,N/A,,Overcast,0,2013-02-06 01:55:00
9:15 PM,32.0,32.0,100,29.90,3.0,Calm,Calm,-,N/A,,Overcast,0,2013-02-06 02:15:00
9:35 PM,32.0,32.0,100,29.90,3.0,Calm,Calm,-,N/A,,Overcast,0,2013-02-06 02:35:00
9:55 PM,32.0,32.0,100,29.91,3.0,Calm,Calm,-,N/A,,Overcast,0,2013-02-06 02:55:00
10:15 PM,32.0,32.0,100,29.92,3.0,Calm,Calm,-,N/A,,Overcast,0,2013-02-06 03:15:00
10:35 PM,32.0,32.0,100,29.91,3.0,Calm,Calm,-,N/A,,Mostly Cloudy,0,2013-02-06 03:35:00
10:55 PM,32.0,32.0,100,29.92,3.0,Calm,Calm,-,N/A,,Overcast,0,2013-02-06 03:55:00
11:15 PM,32.0,32.0,100,29.93,2.0,NW,5.8,-,0.01,Snow,Light Snow,310,2013-02-06 04:15:00
11:35 PM,32.0,32.0,100,29.93,2.0,WNW,3.5,-,0.09,Snow,Light Snow,290,2013-02-06 04:35:00
11:55 PM,32.0,32.0,100,29.93,1.2,WNW,3.5,-,0.15,Snow,Light Snow,300,2013-02-06 04:55:00